SCP
-0 -0 -0 -0 -0 -0 -0 -0 -0 -0 -0 -0 -0 -0 -0 -0 -0 -0 0 -0 -0 -0 0 -0 -0 -0 -0 -0 -0 -0 0 -0 0 -0 0 0 0 0 0 0 -0 -0 -0 -0 0
-0 -0 -0 0 -0 -0 -0 -0 -0 -0 -0 -0 -0 -0 -0 -0 -0 -0 -0 -0 -0 -0 -0 -0 -0 -0 -0 -0 0 -0 0 -0 0 0 0 0 0 0 0 0 -0 -0 -0 -0 -0
-0 0 0 0 -0 -0 -0 -0 -0 -0 0 -0 -0 -0 -0 -0 -0 -0 -0 -0 -0 -0 -0 -0 -0 -0 -0 -0 -0 0 0 0 0 0 0 0 0 0 0 0 -0 0 -0 -0 0
0 0 0 -0 -0 -0 -0 -0 -0 -0 -0 -0 -0 -0 -0 -0 0 -0 -0 -0 -0 -0 -0 -0 -0 -0 -0 -0 -0 -0 0 0 0 0 0 0 0 0 0 0 0 0 -0 -0 -0
-0 -0 -0 -0 -0 -0 -0 -0 -0 -0 -0 -0 -0 -0 0 -0 0 0 -0 -0 0 -0 -0 -0 -0 -0 -0 0 -0 0 0 0 -0 0 0 -0 -0 0 0 -0 -0 0 -0 -0 -0
-0 -0 -0 -0 -0 -0 -0 -0 -0 -0 -0 -0 -0 -0 -0 0 -0 -0 -0 -0 -0 -0 -0 -0 -0 -0 -0 -0 -0 -0 -0 -0 0 0 0 0 0 0 -0 -0 0 -0 -0 -0 -0
-0 -0 -0 -0 -0 -0 -0 -0 -0 -0 -0 -0 -0 0 0 -0 0 -0 -0 -0 -0 -0 0 -0 -0 0 -0 -0 -0 -0 -0 -0 -0 0 0 0 0 0 0 0 0 0 -0 -0 -0
-0 -0 -0 -0 -0 -0 -0 -0 -0 -0 -0 -0 0 0 0 0 -0 -0 -0 -0 -0 -0 -0 -0 -0 -0 -0 -0 -0 0 0 0 -0 -0 0 0 0 0 -0 -0 -0 0 0 0 0
-0 -0 -0 -0 -0 -0 -0 -0 -0 -0 -0 0 0 0 -0 -0 -0 -0 0 -0 -0 -0 -0 -0 -0 -0 -0 0 -0 0 0 0 0 0 0 -0 0 -0 -0 0 0 0 0 0 0
-0 -0 -0 -0 -0 -0 -0 -0 -0 0 0 0 0 0 -0 -0 0 -0 -0 0 -0 -0 -0 0 0 0 0 0 -0 0 0 0 0 0 0 0 -0 0 -0 0 0 0 0 -0 -0
-0 -0 -0 -0 -0 0 0 0 0 0 0 0 0 0 0 0 -0 0 0 0 -0 0 0 -0 0 -0 -0 -0 -0 -0 0 0 0 0 0 0 0 -0 -0 0 -0 0 0 -0 0
-0 -0 -0 -0 0 0 -0 0 0 0 -0 -0 -0 -0 -0 0 0 0 0 0 -0 -0 0 0 -0 -0 -0 -0 -0 -0 0 0 0 0 0 0 0 1 0 0 0 0 -0 -0 -0
-0 -0 -0 0 0 0 0 0 -0 0 0 -0 -0 0 -0 -0 0 0 0 0 0 0 -0 0 -0 -0 -0 -0 -0 -0 0 -0 -0 0 0 0 0 0 0 0 -0 -0 0 0 -0
-0 -0 -0 -0 0 0 0 0 0 0 0 0 0 0 0 -0 0 -0 -0 0 0 -0 0 0 -0 -0 -0 -0 0 0 -0 0 0 0 -0 0 0 0 0 0 0 -0 -0 -0 -0
-0 -0 -0 0 0 0 0 0 0 -0 0 0 -0 0 0 0 0 0 0 0 0 0 0 0 -0 0 0 0 0 -0 0 0 0 0 -0 -0 0 0 0 0 0 0 -0 -0 0
-0 -0 -0 0 0 -0 -0 -0 0 0 -0 0 0 0 0 -0 0 0 0 0 0 0 -0 -0 0 -0 -0 0 0 0 0 0 0 0 -0 -0 0 0 0 -0 0 0 0 -0 0
-0 -0 0 -0 0 0 0 0 0 -0 0 0 0 0 -0 0 -0 -0 0 0 0 0 0 0 -0 -0 0 -0 0 0 0 0 0 0 0 0 0 0 0 0 -0 -0 -0 0 0
-0 -0 -0 -0 -0 -0 0 0 -0 -0 0 -0 0 0 0 0 0 -0 -0 0 0 0 0 0 0 -0 0 0 0 0 0 0 0 0 -0 0 0 0 0 -0 -0 -0 -0 -0 0
-0 0 0 0 -0 0 0 0 -0 0 0 0 0 0 -0 0 0 0 0 0 0 0 0 0 0 -0 -0 0 0 0 -0 -0 -0 0 -0 0 0 0 0 0 0 0 0 -0 -0
-0 -0 0 -0 -0 0 0 -0 -0 0 0 0 0 0 0 -0 0 0 0 0 0 -0 0 0 0 0 -0 0 0 0 0 0 0 0 0 -0 0 0 0 0 0 0 0 -0 0
-0 0 0 0 0 0 -0 0 0 -0 0 0 0 0 0 0 0 0 0 0 0 0 0 0 0 0 0 -0 0 0 0 0 0 -0 -0 -0 -0 0 0 0 0 0 1 0 0
-0 0 0 0 0 0 0 0 0 0 0 0 0 0 0 0 0 0 0 0 0 0 0 0 0 0 0 0 0 0 0 0 0 0 0 0 0 0 0 0 0 0 0 0 0
-0 0 0 0 0 0 -0 0 0 0 0 0 0 0 0 0 0 0 0 0 0 0 0 0 0 0 0 0 0 0 0 0 0 0 0 0 0 0 0 0 0 0 0 0 -0
0 0 0 0 0 0 0 0 0 0 0 0 0 0 0 0 0 0 0 0 0 0 1 0 0 0 0 0 0 0 0 0 0 0 0 0 0 0 0 0 0 0 0 -0 -0
0 0 0 0 0 0 0 0 0 0 0 0 0 0 0 0 0 0 0 0 0 0 0 0 0 0 0 0 -0 0 0 0 0 -0 0 -0 -0 0 0 0 0 -0 -0 -0 0
0 0 0 0 0 0 0 0 0 0 0 0 0 0 0 0 0 0 0 0 0 0 0 0 0 0 0 0 0 0 0 0 0 -0 0 0 -0 0 0 0 0 0 0 -0 0
0 0 0 0 0 0 0 0 0 0 0 0 0 0 0 0 0 0 0 0 0 0 0 0 0 0 0 1 0 0 -0 0 0 0 0 0 0 -0 0 1 0 1 1 0 0
Wind_Speed_500mb
14 13 13 13 14 13 13 13 12 11 10 12 13 13 13 13 15 20 27 20 15 14 17 19 24 21 23 42 32 19 8 9 11 6 7 4 8 5 5 14 42 28 54 59 49
15 14 14 14 14 15 14 13 12 11 10 11 12 13 14 16 20 32 21 19 22 20 26 29 33 38 47 39 19 13 8 6 16 15 9 16 12 11 5 25 47 57 49 42 37
16 16 16 15 15 15 14 13 12 11 10 9 11 12 14 16 22 24 25 15 14 23 23 26 41 43 48 33 17 3 14 12 4 13 18 12 11 7 6 11 23 26 54 43 45
18 18 18 17 16 15 14 13 11 10 9 9 10 12 14 11 5 8 19 19 16 20 19 24 36 49 23 5 4 12 21 10 17 15 8 12 17 15 5 17 19 28 44 40 49
19 19 19 19 18 17 16 14 13 10 9 9 9 12 14 12 38 3 8 19 28 23 23 28 47 49 14 8 20 5 14 32 27 12 19 28 24 12 12 13 35 27 39 48 45
20 20 20 20 19 19 18 16 14 12 10 9 10 12 14 14 12 13 11 19 28 25 23 27 38 42 27 24 6 6 31 25 13 3 18 24 19 15 23 41 42 24 63 52 43
21 21 21 20 20 19 19 17 15 13 11 10 11 14 24 43 2 12 8 20 25 23 23 35 42 45 36 20 13 18 24 55 47 12 8 30 14 15 39 41 47 26 33 48 45
23 22 22 21 20 19 18 17 13 12 12 11 12 16 25 43 33 30 27 13 17 24 37 41 38 28 27 39 44 4 13 16 48 20 17 22 10 15 42 48 52 53 30 33 59
25 24 23 22 20 17 16 11 10 12 12 12 13 14 25 9 42 38 30 32 29 26 34 37 25 22 42 16 17 10 10 10 12 28 9 20 10 31 52 44 46 28 45 42 42
28 26 25 23 20 16 14 8 8 13 14 16 20 14 31 32 40 31 32 34 35 34 39 33 20 11 13 11 14 17 9 18 12 19 26 25 18 15 46 47 36 36 34 35 44
31 29 27 24 20 16 11 9 7 7 25 27 22 30 29 10 28 37 39 37 34 31 13 36 9 14 29 27 30 30 16 17 19 27 19 21 20 26 39 15 36 39 37 49 41
34 31 28 25 20 17 17 16 8 29 21 41 56 59 66 28 25 37 35 41 35 16 23 14 16 28 33 31 26 23 10 19 11 20 23 15 14 30 34 24 11 15 51 62 50
36 33 28 25 19 17 21 25 16 17 18 33 60 60 57 37 25 39 44 45 22 17 23 19 22 32 33 34 20 22 11 15 20 8 7 7 4 18 5 12 18 43 50 53 62
39 34 29 19 12 3 13 10 11 9 8 14 22 40 46 48 31 39 53 46 21 23 24 20 34 31 27 14 11 14 22 18 13 15 6 7 9 6 13 11 12 29 55 55 62
40 34 25 15 11 13 10 4 7 8 7 11 19 13 34 46 13 39 46 52 24 25 18 26 24 23 19 17 18 19 16 19 9 9 12 15 3 5 2 13 22 38 36 60 66
39 31 15 10 11 8 6 6 11 3 12 11 15 14 18 36 43 47 39 50 50 26 26 27 50 25 16 20 13 14 12 19 8 2 7 11 4 9 14 13 7 12 33 75 63
32 18 8 10 9 5 15 11 3 8 17 15 11 20 21 17 26 28 16 27 18 5 13 26 40 34 37 16 11 12 9 8 10 6 14 10 2 14 31 36 53 41 73 85 77
17 6 5 8 17 7 2 4 9 18 18 32 13 10 19 21 23 26 20 15 18 20 19 20 26 28 27 29 19 15 12 10 14 7 13 10 13 13 26 36 79 77 71 72 90
5 5 2 4 12 12 14 7 9 3 21 17 25 17 11 15 17 24 28 22 23 28 26 16 31 39 37 21 21 16 11 19 13 12 12 12 12 13 22 18 20 56 75 74 83
11 11 18 2 7 14 7 12 15 34 16 20 12 17 24 33 24 11 25 33 35 37 22 20 20 26 36 16 19 20 13 7 8 7 14 14 8 9 11 14 25 23 64 39 62
17 7 17 7 19 11 7 13 24 21 13 8 15 18 23 29 27 30 15 24 3 15 9 16 16 24 17 8 18 4 8 9 4 6 6 7 8 13 21 13 18 24 60 37 17
11 5 18 19 13 14 13 11 10 29 25 18 6 18 15 21 20 22 30 19 47 42 20 5 7 11 24 19 21 13 22 20 10 18 9 8 11 13 17 21 35 31 61 42 34
25 13 16 18 6 9 19 26 23 12 6 15 18 21 24 18 15 27 29 45 44 23 14 16 7 8 21 14 16 11 12 10 13 10 17 9 11 12 13 29 43 53 32 28 46
14 6 11 22 24 16 15 14 25 42 17 3 7 18 16 17 21 19 25 28 47 36 56 30 8 9 12 17 12 13 16 18 23 12 11 17 14 15 18 40 34 44 53 47 45
16 12 18 9 19 19 16 16 18 19 27 42 18 30 25 14 17 25 33 32 41 45 35 27 11 16 21 25 37 33 31 28 37 20 11 22 13 11 12 31 48 62 49 47 34
17 17 24 30 33 17 15 10 22 29 18 18 14 25 18 13 15 20 24 22 9 21 19 19 13 17 20 25 29 42 38 36 35 25 18 33 23 17 37 41 62 60 55 55 44
40 22 16 23 19 17 10 15 20 22 14 31 29 20 25 27 44 38 40 40 33 21 21 15 11 12 14 21 30 29 16 22 30 31 18 30 23 12 12 15 44 49 35 13 46
Wind_Direction_500mb
353 347 344 340 339 343 343 336 330 317 297 275 271 274 275 273 271 262 243 218 276 278 279 279 274 275 281 270 279 117 63 77 268 316 150 221 157 192 6 349 69 97 131 147 154
347 340 337 335 335 336 339 339 335 326 308 277 265 269 276 281 280 264 213 215 248 272 276 272 269 268 258 274 274 100 57 232 242 43 135 193 109 112 51 37 72 109 123 138 157
345 339 336 333 330 328 329 335 335 331 317 287 262 261 270 285 299 272 208 213 236 271 269 267 271 284 287 290 30 61 181 233 315 72 86 144 77 73 79 47 60 153 141 152 153
343 339 336 332 327 321 319 321 324 323 314 292 261 252 258 271 298 41 222 215 222 248 255 270 283 281 274 159 138 113 240 240 350 104 80 110 102 73 36 174 143 180 175 162 166
337 335 333 331 326 319 314 308 306 306 302 287 266 250 257 257 246 262 309 216 217 229 240 264 283 293 330 316 128 189 90 75 287 196 132 104 100 111 111 148 168 203 202 168 177
332 330 328 326 323 318 311 302 292 288 285 274 259 250 245 246 43 229 263 215 216 223 237 262 272 299 303 307 112 159 96 138 185 294 132 131 144 127 196 198 209 241 180 172 169
333 329 326 323 319 317 312 301 285 274 272 272 259 258 248 233 198 228 292 229 217 216 238 256 277 322 302 317 174 182 58 12 316 312 195 158 136 223 179 191 221 237 202 174 157
337 332 327 324 318 316 315 304 281 260 259 260 262 267 260 241 227 231 238 255 251 215 241 271 291 317 310 291 296 244 76 114 258 265 241 145 240 196 184 195 220 242 183 153 160
341 334 328 323 317 315 317 299 268 249 247 246 260 258 267 297 212 214 220 231 223 233 241 255 286 310 291 284 293 205 187 182 255 200 196 201 227 190 183 190 202 207 172 177 175
342 336 328 322 316 309 313 278 255 240 233 241 222 278 248 223 216 221 213 227 226 224 237 247 249 242 273 261 253 236 299 177 195 189 211 201 233 175 184 184 199 216 176 188 178
339 334 326 319 312 298 284 264 284 229 220 217 212 218 294 271 204 208 213 229 234 222 219 244 209 239 248 253 259 278 236 324 184 199 196 196 217 188 162 212 218 210 189 184 204
334 331 324 315 305 284 260 238 263 335 285 264 254 250 267 267 220 194 197 215 225 234 226 256 235 236 255 270 283 302 337 305 278 182 191 216 246 169 149 176 235 226 198 202 207
332 328 321 310 301 288 264 258 270 347 291 279 238 235 239 253 245 193 194 207 219 232 249 234 245 248 242 255 262 286 249 265 267 217 204 204 152 128 343 189 191 242 238 222 202
329 327 317 307 297 260 284 360 347 338 303 268 189 227 229 240 240 234 194 201 214 241 240 241 253 255 279 264 264 270 294 290 336 4 275 157 261 206 171 237 225 235 228 209 213
327 325 312 279 246 234 22 64 271 259 294 154 145 210 193 208 256 210 215 197 216 226 230 254 266 275 264 257 270 269 283 293 242 275 316 287 136 54 46 223 192 208 225 215 217
326 323 310 260 251 223 93 31 300 270 246 161 138 177 199 199 234 263 205 195 211 234 267 274 284 281 261 295 255 291 268 308 284 358 313 291 186 173 186 221 192 231 207 217 220
325 316 288 234 113 101 273 306 250 239 307 148 175 175 189 221 210 242 219 192 208 244 262 264 261 260 260 275 282 313 309 306 322 335 244 230 62 223 216 188 192 200 206 216 215
328 318 311 238 187 110 173 255 256 275 321 7 6 184 188 193 207 207 244 199 224 215 254 277 291 244 238 213 193 218 203 188 253 257 265 97 227 247 210 225 193 206 210 209 214
299 279 273 71 207 147 252 225 240 339 9 3 349 325 305 264 218 185 207 215 214 222 221 237 270 289 299 199 174 241 259 235 262 276 298 251 264 38 223 272 185 191 204 203 194
322 278 283 117 137 154 243 253 286 292 328 9 337 309 321 318 341 242 199 218 222 235 215 228 246 258 277 180 211 167 213 321 309 259 269 293 322 185 93 97 84 78 65 357 184
343 293 146 157 133 206 240 253 285 321 69 22 325 322 322 318 330 330 323 323 266 287 307 321 230 255 254 238 208 193 216 252 228 193 220 300 283 215 183 177 107 103 126 195 111
350 260 162 144 200 214 231 245 239 326 355 316 299 287 279 309 315 313 312 325 356 345 328 156 241 273 227 243 266 238 197 192 151 277 240 207 272 149 183 127 126 130 145 186 213
335 261 161 186 258 283 308 326 3 343 356 4 338 341 353 341 334 330 324 322 331 352 10 332 314 359 333 313 258 249 285 250 199 193 235 216 259 216 220 139 150 144 167 189 193
342 302 141 206 242 309 14 345 348 340 333 309 247 359 344 327 314 301 309 320 360 20 356 3 303 217 231 259 309 311 342 312 282 292 239 237 249 210 219 155 155 172 162 180 222
358 33 11 330 347 338 337 315 307 309 16 20 359 353 344 349 327 342 342 339 345 358 353 354 327 334 326 322 310 298 297 285 259 249 281 265 275 169 145 146 185 185 169 186 216
23 358 337 300 315 307 282 9 7 7 12 346 329 337 336 327 308 342 339 339 316 336 337 326 318 340 323 326 314 311 278 283 290 287 286 298 264 206 196 166 156 175 180 174 166
9 347 310 296 305 291 13 16 342 343 348 339 349 343 324 313 320 321 316 301 293 299 307 298 294 314 283 324 334 293 290 255 271 292 268 284 278 231 141 154 145 138 128 64 158
Wind_Speed_850mb
14 13 13 13 14 13 13 13 12 11 10 12 13 13 13 13 15 20 27 20 15 14 17 19 24 21 23 42 32 19 8 9 11 6 7 4 8 5 5 14 42 28 54 59 49
15 14 14 14 14 15 14 13 12 11 10 11 12 13 14 16 20 32 21 19 22 20 26 29 33 38 47 39 19 13 8 6 16 15 9 16 12 11 5 25 47 57 49 42 37
16 16 16 15 15 15 14 13 12 11 10 9 11 12 14 16 22 24 25 15 14 23 23 26 41 43 48 33 17 3 14 12 4 13 18 12 11 7 6 11 23 26 54 43 45
18 18 18 17 16 15 14 13 11 10 9 9 10 12 14 11 5 8 19 19 16 20 19 24 36 49 23 5 4 12 21 10 17 15 8 12 17 15 5 17 19 28 44 40 49
19 19 19 19 18 17 16 14 13 10 9 9 9 12 14 12 38 3 8 19 28 23 23 28 47 49 14 8 20 5 14 32 27 12 19 28 24 12 12 13 35 27 39 48 45
20 20 20 20 19 19 18 16 14 12 10 9 10 12 14 14 12 13 11 19 28 25 23 27 38 42 27 24 6 6 31 25 13 3 18 24 19 15 23 41 42 24 63 52 43
21 21 21 20 20 19 19 17 15 13 11 10 11 14 24 43 2 12 8 20 25 23 23 35 42 45 36 20 13 18 24 55 47 12 8 30 14 15 39 41 47 26 33 48 45
23 22 22 21 20 19 18 17 13 12 12 11 12 16 25 43 33 30 27 13 17 24 37 41 38 28 27 39 44 4 13 16 48 20 17 22 10 15 42 48 52 53 30 33 59
25 24 23 22 20 17 16 11 10 12 12 12 13 14 25 9 42 38 30 32 29 26 34 37 25 22 42 16 17 10 10 10 12 28 9 20 10 31 52 44 46 28 45 42 42
28 26 25 23 20 16 14 8 8 13 14 16 20 14 31 32 40 31 32 34 35 34 39 33 20 11 13 11 14 17 9 18 12 19 26 25 18 15 46 47 36 36 34 35 44
31 29 27 24 20 16 11 9 7 7 25 27 22 30 29 10 28 37 39 37 34 31 13 36 9 14 29 27 30 30 16 17 19 27 19 21 20 26 39 15 36 39 37 49 41
34 31 28 25 20 17 17 16 8 29 21 41 56 59 66 28 25 37 35 41 35 16 23 14 16 28 33 31 26 23 10 19 11 20 23 15 14 30 34 24 11 15 51 62 50
36 33 28 25 19 17 21 25 16 17 18 33 60 60 57 37 25 39 44 45 22 17 23 19 22 32 33 34 20 22 11 15 20 8 7 7 4 18 5 12 18 43 50 53 62
39 34 29 19 12 3 13 10 11 9 8 14 22 40 46 48 31 39 53 46 21 23 24 20 34 31 27 14 11 14 22 18 13 15 6 7 9 6 13 11 12 29 55 55 62
40 34 25 15 11 13 10 4 7 8 7 11 19 13 34 46 13 39 46 52 24 25 18 26 24 23 19 17 18 19 16 19 9 9 12 15 3 5 2 13 22 38 36 60 66
39 31 15 10 11 8 6 6 11 3 12 11 15 14 18 36 43 47 39 50 50 26 26 27 50 25 16 20 13 14 12 19 8 2 7 11 4 9 14 13 7 12 33 75 63
32 18 8 10 9 5 15 11 3 8 17 15 11 20 21 17 26 28 16 27 18 5 13 26 40 34 37 16 11 12 9 8 10 6 14 10 2 14 31 36 53 41 73 85 77
17 6 5 8 17 7 2 4 9 18 18 32 13 10 19 21 23 26 20 15 18 20 19 20 26 28 27 29 19 15 12 10 14 7 13 10 13 13 26 36 79 77 71 72 90
5 5 2 4 12 12 14 7 9 3 21 17 25 17 11 15 17 24 28 22 23 28 26 16 31 39 37 21 21 16 11 19 13 12 12 12 12 13 22 18 20 56 75 74 83
11 11 18 2 7 14 7 12 15 34 16 20 12 17 24 33 24 11 25 33 35 37 22 20 20 26 36 16 19 20 13 7 8 7 14 14 8 9 11 14 25 23 64 39 62
17 7 17 7 19 11 7 13 24 21 13 8 15 18 23 29 27 30 15 24 3 15 9 16 16 24 17 8 18 4 8 9 4 6 6 7 8 13 21 13 18 24 60 37 17
11 5 18 19 13 14 13 11 10 29 25 18 6 18 15 21 20 22 30 19 47 42 20 5 7 11 24 19 21 13 22 20 10 18 9 8 11 13 17 21 35 31 61 42 34
25 13 16 18 6 9 19 26 23 12 6 15 18 21 24 18 15 27 29 45 44 23 14 16 7 8 21 14 16 11 12 10 13 10 17 9 11 12 13 29 43 53 32 28 46
14 6 11 22 24 16 15 14 25 42 17 3 7 18 16 17 21 19 25 28 47 36 56 30 8 9 12 17 12 13 16 18 23 12 11 17 14 15 18 40 34 44 53 47 45
16 12 18 9 19 19 16 16 18 19 27 42 18 30 25 14 17 25 33 32 41 45 35 27 11 16 21 25 37 33 31 28 37 20 11 22 13 11 12 31 48 62 49 47 34
17 17 24 30 33 17 15 10 22 29 18 18 14 25 18 13 15 20 24 22 9 21 19 19 13 17 20 25 29 42 38 36 35 25 18 33 23 17 37 41 62 60 55 55 44
40 22 16 23 19 17 10 15 20 22 14 31 29 20 25 27 44 38 40 40 33 21 21 15 11 12 14 21 30 29 16 22 30 31 18 30 23 12 12 15 44 49 35 13 46
Wind_Direction_850mb
353 347 344 340 339 343 343 336 330 317 297 275 271 274 275 273 271 262 243 218 276 278 279 279 274 275 281 270 279 117 63 77 268 316 150 221 157 192 6 349 69 97 131 147 154
347 340 337 335 335 336 339 339 335 326 308 277 265 269 276 281 280 264 213 215 248 272 276 272 269 268 258 274 274 100 57 232 242 43 135 193 109 112 51 37 72 109 123 138 157
345 339 336 333 330 328 329 335 335 331 317 287 262 261 270 285 299 272 208 213 236 271 269 267 271 284 287 290 30 61 181 233 315 72 86 144 77 73 79 47 60 153 141 152 153
343 339 336 332 327 321 319 321 324 323 314 292 261 252 258 271 298 41 222 215 222 248 255 270 283 281 274 159 138 113 240 240 350 104 80 110 102 73 36 174 143 180 175 162 166
337 335 333 331 326 319 314 308 306 306 302 287 266 250 257 257 246 262 309 216 217 229 240 264 283 293 330 316 128 189 90 75 287 196 132 104 100 111 111 148 168 203 202 168 177
332 330 328 326 323 318 311 302 292 288 285 274 259 250 245 246 43 229 263 215 216 223 237 262 272 299 303 307 112 159 96 138 185 294 132 131 144 127 196 198 209 241 180 172 169
333 329 326 323 319 317 312 301 285 274 272 272 259 258 248 233 198 228 292 229 217 216 238 256 277 322 302 317 174 182 58 12 316 312 195 158 136 223 179 191 221 237 202 174 157
337 332 327 324 318 316 315 304 281 260 259 260 262 267 260 241 227 231 238 255 251 215 241 271 291 317 310 291 296 244 76 114 258 265 241 145 240 196 184 195 220 242 183 153 160
341 334 328 323 317 315 317 299 268 249 247 246 260 258 267 297 212 214 220 231 223 233 241 255 286 310 291 284 293 205 187 182 255 200 196 201 227 190 183 190 202 207 172 177 175
342 336 328 322 316 309 313 278 255 240 233 241 222 278 248 223 216 221 213 227 226 224 237 247 249 242 273 261 253 236 299 177 195 189 211 201 233 175 184 184 199 216 176 188 178
339 334 326 319 312 298 284 264 284 229 220 217 212 218 294 271 204 208 213 229 234 222 219 244 209 239 248 253 259 278 236 324 184 199 196 196 217 188 162 212 218 210 189 184 204
334 331 324 315 305 284 260 238 263 335 285 264 254 250 267 267 220 194 197 215 225 234 226 256 235 236 255 270 283 302 337 305 278 182 191 216 246 169 149 176 235 226 198 202 207
332 328 321 310 301 288 264 258 270 347 291 279 238 235 239 253 245 193 194 207 219 232 249 234 245 248 242 255 262 286 249 265 267 217 204 204 152 128 343 189 191 242 238 222 202
329 327 317 307 297 260 284 360 347 338 303 268 189 227 229 240 240 234 194 201 214 241 240 241 253 255 279 264 264 270 294 290 336 4 275 157 261 206 171 237 225 235 228 209 213
327 325 312 279 246 234 22 64 271 259 294 154 145 210 193 208 256 210 215 197 216 226 230 254 266 275 264 257 270 269 283 293 242 275 316 287 136 54 46 223 192 208 225 215 217
326 323 310 260 251 223 93 31 300 270 246 161 138 177 199 199 234 263 205 195 211 234 267 274 284 281 261 295 255 291 268 308 284 358 313 291 186 173 186 221 192 231 207 217 220
325 316 288 234 113 101 273 306 250 239 307 148 175 175 189 221 210 242 219 192 208 244 262 264 261 260 260 275 282 313 309 306 322 335 244 230 62 223 216 188 192 200 206 216 215
328 318 311 238 187 110 173 255 256 275 321 7 6 184 188 193 207 207 244 199 224 215 254 277 291 244 238 213 193 218 203 188 253 257 265 97 227 247 210 225 193 206 210 209 214
299 279 273 71 207 147 252 225 240 339 9 3 349 325 305 264 218 185 207 215 214 222 221 237 270 289 299 199 174 241 259 235 262 276 298 251 264 38 223 272 185 191 204 203 194
322 278 283 117 137 154 243 253 286 292 328 9 337 309 321 318 341 242 199 218 222 235 215 228 246 258 277 180 211 167 213 321 309 259 269 293 322 185 93 97 84 78 65 357 184
343 293 146 157 133 206 240 253 285 321 69 22 325 322 322 318 330 330 323 323 266 287 307 321 230 255 254 238 208 193 216 252 228 193 220 300 283 215 183 177 107 103 126 195 111
350 260 162 144 200 214 231 245 239 326 355 316 299 287 279 309 315 313 312 325 356 345 328 156 241 273 227 243 266 238 197 192 151 277 240 207 272 149 183 127 126 130 145 186 213
335 261 161 186 258 283 308 326 3 343 356 4 338 341 353 341 334 330 324 322 331 352 10 332 314 359 333 313 258 249 285 250 199 193 235 216 259 216 220 139 150 144 167 189 193
342 302 141 206 242 309 14 345 348 340 333 309 247 359 344 327 314 301 309 320 360 20 356 3 303 217 231 259 309 311 342 312 282 292 239 237 249 210 219 155 155 172 162 180 222
358 33 11 330 347 338 337 315 307 309 16 20 359 353 344 349 327 342 342 339 345 358 353 354 327 334 326 322 310 298 297 285 259 249 281 265 275 169 145 146 185 185 169 186 216
23 358 337 300 315 307 282 9 7 7 12 346 329 337 336 327 308 342 339 339 316 336 337 326 318 340 323 326 314 311 278 283 290 287 286 298 264 206 196 166 156 175 180 174 166
9 347 310 296 305 291 13 16 342 343 348 339 349 343 324 313 320 321 316 301 293 299 307 298 294 314 283 324 334 293 290 255 271 292 268 284 278 231 141 154 145 138 128 64 158